Weather observations for the past three days for
Fort Worth, Meacham International Airport
Imperial (Metric)
Date Time (cdt) Wind (mph) Vis. (mi.) Weather Sky Cond. Temperature (ºF) Relative Humidity Wind Chill (°F) Heat Index (°F) Pressure Precipitation (in)
Air Dwpt 6 hour altimeter (in) sea level (mb) 1 hr 3 hr 6 hr
Max. Min.
21 00:53 E 6 10.00 Fair CLR 80.1 69.1 89.1 79 69% 83 30.14 1019.6
20 23:53 SE 7 10.00 Fair CLR 81 69.1 67% 84 30.14 1019.6
20 22:53 E 6 10.00 Fair CLR 82 68 63% 85 30.13 1019.2
20 21:53 E 8 10.00 Fair CLR 82.9 68 61% 86 30.11 1018.6
20 20:53 E 8 10.00 Fair CLR 84.9 66.9 55% 88 30.09 1018.0
20 19:53 E 13 10.00 Fair CLR 87.1 66 50% 89 30.08 1017.6
20 18:53 E 16 G 21 10.00 Fair CLR 89.1 68 91.9 84.9 50% 93 30.08 1017.6
20 17:53 E 13 10.00 A Few Clouds FEW048 88 68 52% 92 30.09 1017.8
20 16:53 E 13 10.00 Partly Cloudy SCT055 88 68 52% 92 30.11 1018.5
20 15:53 E 10 10.00 Partly Cloudy SCT048 89.1 68 50% 93 30.13 1019.2
20 14:53 E 12 G 22 10.00 Mostly Cloudy SCT046 BKN065 90 69.1 50% 95 30.14 1019.7
20 13:53 E 13 G 18 10.00 Mostly Cloudy FEW042 BKN085 88 70 55% 93 30.16 1020.4
20 12:53 E 8 10.00 Overcast BKN034 BKN044 OVC070 84.9 70 86 77 61% 89 30.17 1020.7
20 11:53 E 6 10.00 Mostly Cloudy FEW028 BKN045 BKN060 82.9 71.1 67% 88 30.18 1021.2
20 10:53 SE 8 10.00 Overcast FEW023 SCT037 OVC045 82.9 73 72% 89 30.18 1021.2
20 09:53 E 8 10.00 Overcast FEW017 OVC024 80.1 73 79% 84 30.18 1021.0
20 08:53 E 10 10.00 Overcast OVC014 78.1 72 82% 80 30.16 1020.4
20 07:53 E 10 10.00 Overcast OVC014 77 72 85% 78 30.13 1019.5
20 06:53 E 8 10.00 Mostly Cloudy BKN017 77 72 80.1 77 85% 78 30.11 1018.8
20 05:53 E 8 10.00 Overcast BKN017 OVC041 77 72 85% 78 30.1 1018.5
20 04:53 E 9 10.00 Overcast BKN018 OVC026 78.1 72 82% 80 30.09 1018.1
20 03:53 E 7 10.00 Fair CLR 78.1 71.1 79% 80 30.08 1017.7
20 02:53 E 8 10.00 Fair CLR 79 71.1 77% 82 30.09 1017.7
20 01:53 E 9 10.00 Fair CLR 80.1 70 71% 83 30.1 1018.1
20 00:53 E 6 10.00 Fair CLR 80.1 69.1 84 80.1 69% 83 30.11 1018.7
19 23:53 E 8 10.00 Fair CLR 80.1 68 67% 83 30.12 1018.9
19 22:53 E 6 10.00 Fair CLR 80.1 66.9 64% 82 30.11 1018.7
19 21:53 E 6 10.00 Fair CLR 81 66.9 62% 83 30.09 1017.9
19 20:53 E 8 10.00 Fair CLR 81 66 61% 83 30.07 1017.2
19 19:53 E 12 10.00 Fair CLR 82 64 55% 84 30.06 1016.9
19 18:53 E 14 10.00 Fair CLR 84 64.9 89.1 82.9 53% 86 30.05 1016.7
19 17:53 E 17 G 23 10.00 Fair CLR 84 66 55% 86 30.04 1016.5
19 16:53 E 15 10.00 Mostly Cloudy BKN110 84.9 66.9 55% 88 30.04 1016.3
19 15:53 SE 12 G 20 10.00 Fair CLR 86 68 55% 89 30.04 1016.4
19 14:53 E 12 G 17 10.00 Partly Cloudy SCT041 88 69.1 54% 92 30.05 1016.7
19 13:53 Vrbl 7 G 17 10.00 Overcast FEW033 OVC100 84.9 70 61% 89 30.06 1017.1
19 12:53 E 9 10.00 Mostly Cloudy SCT029 BKN034 BKN080 82.9 70 84 73.9 65% 87 30.08 1017.8
19 11:53 E 10 10.00 Overcast FEW028 BKN033 OVC041 82 70 67% 86 30.08 1017.6
19 10:53 E 10 10.00 Overcast FEW023 OVC080 81 70 69% 84 30.07 1017.3
19 09:53 E 10 10.00 Overcast SCT018 BKN035 OVC065 79 71.1 77% 82 30.07 1017.4
19 08:53 E 10 10.00 Overcast FEW015 BKN024 OVC029 77 70 79% 79 30.06 1017.1
19 07:53 E 10 10.00 Partly Cloudy SCT025 75.9 70 82% 77 30.03 1016.0
19 06:53 E 7 10.00 Overcast OVC025 73.9 69.1 77 73 85% 30 1015.1
19 05:53 E 9 10.00 Fair CLR 73 70 90% 29.97 1014.0
19 04:53 SE 7 10.00 Fair CLR 73.9 70 88% 29.95 1013.1
19 03:53 SE 9 10.00 Fair CLR 73.9 69.1 85% 29.95 1013.2
19 02:53 SE 9 10.00 Fair CLR 75 69.1 82% 75 29.95 1013.0
19 01:53 SE 8 10.00 Fair CLR 75.9 69.1 79% 77 29.94 1013.0
19 00:53 SE 15 G 25 10.00 Fair CLR 77 69.1 89.1 77 77% 79 29.93 1012.7
18 23:53 SE 21 G 29 10.00 Fair and Breezy CLR 79 69.1 72% 82 29.92 1012.3
18 22:53 SE 23 G 35 10.00 Fair and Breezy CLR 81 69.1 67% 84 29.9 1011.5
18 21:53 SE 16 G 24 10.00 Fair CLR 84 70 63% 88 29.86 1010.3
18 20:53 SE 20 G 28 10.00 Fair CLR 84.9 68 57% 88 29.83 1009.1
18 19:53 SE 16 G 25 10.00 Fair CLR 87.1 69.1 55% 91 29.82 1008.8
18 18:53 SE 22 G 31 10.00 Fair and Breezy CLR 88 69.1 91 84.9 54% 92 29.81 1008.4
18 17:53 SE 20 G 28 10.00 Mostly Cloudy BKN055 BKN070 90 69.1 50% 95 29.81 1008.6
18 16:53 SE 16 G 25 10.00 Partly Cloudy SCT050 91 70 50% 97 29.82 1008.8
18 15:53 SE 17 G 29 10.00 Mostly Cloudy FEW048 FEW055 BKN075 89.1 69.1 52% 94 29.84 1009.3
18 14:53 SE 17 G 28 10.00 Mostly Cloudy FEW048 BKN075 90 70 52% 95 29.85 1009.6
18 13:53 SE 18 G 25 10.00 Mostly Cloudy SCT046 BKN065 87.1 69.1 55% 91 29.86 1009.9
18 12:53 S 18 G 30 10.00 Mostly Cloudy SCT038 BKN049 86 70 88 73.9 59% 91 29.87 1010.3
18 11:53 S 16 G 28 10.00 Mostly Cloudy SCT033 BKN042 82.9 70 65% 87 29.86 1010.2
18 10:53 SE 17 G 26 10.00 Mostly Cloudy BKN026 BKN033 82.9 72 70% 88 29.87 1010.5
18 09:53 SE 17 G 28 10.00 Partly Cloudy SCT020 80.1 71.1 74% 84 29.88 1010.9
18 08:53 SE 14 10.00 Overcast BKN017 OVC045 77 71.1 82% 79 29.89 1011.2
18 07:53 SE 12 10.00 Overcast BKN015 OVC042 73.9 70 88% 29.87 1010.5
18 06:53 SE 10 10.00 Overcast SCT016 OVC038 73.9 70 80.1 73.9 88% 29.84 1009.5
18 05:53 S 14 10.00 Mostly Cloudy SCT019 BKN034 73.9 69.1 85% 29.83 1009.2
18 04:53 SE 18 G 26 10.00 Fair CLR 75 68 79% 76 29.82 1008.6
18 03:53 S 15 G 25 10.00 Fair CLR 75.9 68 77% 77 29.81 1008.4
18 02:53 S 12 G 22 10.00 A Few Clouds FEW025 75.9 70 82% 77 29.81 1008.3
Date Time (cdt) Wind (mph) Vis. (mi.) Weather Sky Cond. Air Dwpt Max. Min. Relative Humidity Wind Chill (°F) Heat Index (°F) altimeter (in) sea level (mb) 1 hr 3 hr 6 hr
6 hour
Temperature (ºF) Pressure Precipitation (in)